Voltar ao catálogo

STARLINK-4331

AtivoComunicaçõesSSO
NORAD 53046·PAYLOAD·🇺🇸 United States

Lançado Jul 11, 2022 de Vandenberg Space Force Base

Loading…

Próximas Passagens (próximas 24 horas)

TLE

AtualizadoSource: CelesTrak SupGP

Época: Sep 15, 2026, 02:54 UTC

1 53046C 22077D   26258.12131944 -.00056220  00000+0 -17453-2 0  2580
2 53046  97.2857  73.8985 0001719  91.1767 185.8843 15.33464458    18

Acompanhe STARLINK-4331 em tempo real com AllMySat

Download on the App Store